| time (UTC) | temp C | wind direction | speed KPH | gust KPH | rain 1hr cm | rain 24hr cm | rain mn cm | humidity % | barometer mb |
| 20260906095030 | 17 | 162 | 3.2 | 17.7 | 0.00 | 0.00 | 0.00 | 75 | 1025.9 |
| 20260906094030 | 17 | 183 | 4.8 | 14.5 | 0.00 | 0.00 | 0.00 | 77 | 1026.1 |
| 20260906093030 | 17 | 184 | 3.2 | 9.7 | 0.00 | 0.00 | 0.00 | 78 | 1026.2 |
| 20260906092030 | 16 | 184 | 8.0 | 16.1 | 0.00 | 0.00 | 0.00 | 78 | 1026.3 |
| 20260906091030 | 16 | 166 | 4.8 | 14.5 | 0.00 | 0.00 | 0.00 | 78 | 1026.2 |
| 20260906090029 | 16 | 195 | 6.4 | 16.1 | 0.00 | 0.00 | 0.00 | 79 | 1026.2 |
| 20260906085030 | 16 | 175 | 4.8 | 12.9 | 0.00 | 0.00 | 0.00 | 80 | 1026.3 |
| 20260906084030 | 16 | 181 | 6.4 | 17.7 | 0.00 | 0.00 | 0.00 | 80 | 1026.2 |
| 20260906083030 | 15 | 192 | 6.4 | 14.5 | 0.00 | 0.00 | 0.00 | 81 | 1026.2 |
| 20260906082029 | 15 | 198 | 6.4 | 16.1 | 0.00 | 0.00 | 0.00 | 81 | 1026.3 |
| 20260906081030 | 15 | 184 | 6.4 | 14.5 | 0.00 | 0.00 | 0.00 | 82 | 1026.3 |
| 20260906080030 | 15 | 183 | 6.4 | 17.7 | 0.00 | 0.00 | 0.00 | 83 | 1026.4 |
| 20260906075030 | 15 | 187 | 8.0 | 17.7 | 0.00 | 0.00 | 0.00 | 84 | 1026.4 |
| 20260906074030 | 14 | 186 | 3.2 | 12.9 | 0.00 | 0.00 | 0.00 | 85 | 1026.2 |
| 20260906073030 | 14 | 139 | 3.2 | 8.0 | 0.00 | 0.00 | 0.00 | 85 | 1026.1 |
| 20260906072030 | 13 | 117 | 3.2 | 9.7 | 0.00 | 0.00 | 0.00 | 86 | 1026.1 |
| 20260906071030 | 13 | 120 | 3.2 | 9.7 | 0.00 | 0.00 | 0.00 | 87 | 1026.1 |
| 20260906070030 | 13 | 137 | 3.2 | 9.7 | 0.00 | 0.00 | 0.00 | 87 | 1026.0 |
| 20260906065029 | 13 | 122 | 3.2 | 9.7 | 0.00 | 0.00 | 0.00 | 88 | 1026.0 |
| 20260906064030 | 12 | 111 | 4.8 | 9.7 | 0.00 | 0.00 | 0.00 | 88 | 1026.1 |
| 20260906063030 | 12 | 117 | 3.2 | 6.4 | 0.00 | 0.00 | 0.00 | 88 | 1026.1 |
| 20260906062030 | 12 | 102 | 3.2 | 6.4 | 0.00 | 0.00 | 0.00 | 88 | 1026.1 |
| 20260906061029 | 12 | 108 | 3.2 | 9.7 | 0.00 | 0.00 | 0.00 | 88 | 1026.1 |
| 20260906060030 | 12 | 106 | 4.8 | 9.7 | 0.00 | 0.00 | 0.00 | 88 | 1026.0 |
| 20260906055030 | 12 | 110 | 3.2 | 9.7 | 0.00 | 0.00 | 0.00 | 88 | 1026.0 |
| 20260906054030 | 12 | 120 | 3.2 | 9.7 | 0.00 | 0.00 | 0.00 | 87 | 1025.9 |
| 20260906053030 | 12 | 103 | 4.8 | 9.7 | 0.00 | 0.00 | 0.00 | 87 | 1025.9 |
| 20260906052030 | 12 | 98 | 3.2 | 9.7 | 0.00 | 0.00 | 0.00 | 87 | 1025.8 |
| 20260906051030 | 12 | 101 | 4.8 | 9.7 | 0.00 | 0.00 | 0.00 | 87 | 1025.7 |
| 20260906050030 | 12 | 132 | 3.2 | 6.4 | 0.00 | 0.00 | 0.00 | 87 | 1025.7 |
| 20260906045030 | 12 | 107 | 4.8 | 9.7 | 0.00 | 0.00 | 0.00 | 87 | 1025.7 |
| 20260906044029 | 12 | 94 | 4.8 | 11.3 | 0.00 | 0.00 | 0.00 | 86 | 1025.7 |
| 20260906043030 | 12 | 94 | 4.8 | 11.3 | 0.00 | 0.00 | 0.00 | 87 | 1025.7 |
| 20260906042030 | 12 | 106 | 3.2 | 6.4 | 0.00 | 0.00 | 0.00 | 87 | 1025.7 |
| 20260906041030 | 12 | 120 | 3.2 | 6.4 | 0.00 | 0.00 | 0.00 | 86 | 1025.8 |
| 20260906040030 | 12 | 141 | 1.6 | 6.4 | 0.00 | 0.00 | 0.00 | 86 | 1025.8 |
| 20260906035029 | 12 | 123 | 3.2 | 6.4 | 0.00 | 0.00 | 0.00 | 86 | 1025.7 |
| 20260906034030 | 13 | 127 | 1.6 | 4.8 | 0.00 | 0.00 | 0.00 | 86 | 1025.8 |
| 20260906033030 | 13 | 126 | 1.6 | 4.8 | 0.00 | 0.00 | 0.00 | 86 | 1025.9 |
| 20260906032029 | 13 | 160 | 1.6 | 4.8 | 0.00 | 0.00 | 0.00 | 85 | 1026.0 |
| 20260906031030 | 13 | 191 | 3.2 | 6.4 | 0.00 | 0.00 | 0.00 | 85 | 1026.1 |
| 20260906030030 | 13 | 182 | 3.2 | 11.3 | 0.00 | 0.00 | 0.00 | 85 | 1026.3 |
| 20260906025030 | 13 | 173 | 1.6 | 6.4 | 0.00 | 0.00 | 0.00 | 85 | 1026.3 |
| 20260906024030 | 13 | 177 | 4.8 | 11.3 | 0.00 | 0.00 | 0.00 | 84 | 1026.3 |
| 20260906023030 | 13 | 181 | 6.4 | 14.5 | 0.00 | 0.00 | 0.00 | 84 | 1026.4 |
| 20260906022030 | 13 | 187 | 6.4 | 11.3 | 0.00 | 0.00 | 0.00 | 84 | 1026.4 |
| 20260906021029 | 13 | 189 | 6.4 | 9.7 | 0.00 | 0.00 | 0.00 | 84 | 1026.5 |
| 20260906020030 | 13 | 190 | 8.0 | 12.9 | 0.00 | 0.00 | 0.00 | 83 | 1026.4 |
| 20260906015030 | 13 | 202 | 8.0 | 12.9 | 0.00 | 0.00 | 0.00 | 83 | 1026.3 |
| 20260906014029 | 13 | 194 | 8.0 | 14.5 | 0.00 | 0.00 | 0.00 | 82 | 1026.3 |
| 20260906013030 | 13 | 194 | 6.4 | 14.5 | 0.00 | 0.00 | 0.00 | 82 | 1026.2 |
| 20260906012030 | 13 | 168 | 1.6 | 8.0 | 0.00 | 0.00 | 0.00 | 81 | 1026.2 |
| 20260906011029 | 13 | 179 | 3.2 | 9.7 | 0.00 | 0.00 | 0.00 | 81 | 1026.1 |
| 20260906010030 | 13 | 115 | 3.2 | 6.4 | 0.00 | 0.00 | 0.00 | 81 | 1026.1 |
| 20260906005029 | 13 | 117 | 1.6 | 4.8 | 0.00 | 0.00 | 0.00 | 81 | 1026.0 |
| 20260906004030 | 14 | 146 | 1.6 | 4.8 | 0.00 | 0.00 | 0.00 | 81 | 1026.0 |
| 20260906003030 | 14 | 181 | 4.8 | 9.7 | 0.00 | 0.00 | 0.00 | 80 | 1026.0 |
| 20260906002030 | 14 | 187 | 6.4 | 11.3 | 0.00 | 0.00 | 0.00 | 80 | 1026.3 |
| 20260906001030 | 14 | 186 | 8.0 | 14.5 | 0.00 | 0.00 | 0.00 | 79 | 1026.3 |
| 20260906000030 | 14 | 183 | 4.8 | 11.3 | 0.00 | 0.00 | 0.00 | 78 | 1026.2 |
| 20260905235030 | 15 | 187 | 6.4 | 11.3 | 0.00 | 0.00 | 0.00 | 78 | 1026.3 |
| 20260905234030 | 15 | 175 | 3.2 | 9.7 | 0.00 | 0.00 | 0.00 | 76 | 1026.2 |
| 20260905233030 | 15 | 164 | 3.2 | 11.3 | 0.00 | 0.00 | 0.00 | 77 | 1026.1 |
| 20260905232030 | 15 | 203 | 6.4 | 11.3 | 0.00 | 0.00 | 0.00 | 76 | 1026.2 |
| 20260905231030 | 16 | 210 | 6.4 | 12.9 | 0.00 | 0.00 | 0.00 | 75 | 1026.2 |
| 20260905230029 | 16 | 257 | 12.9 | 16.1 | 0.00 | 0.00 | 0.00 | 75 | 1026.0 |
| 20260905225030 | 16 | 257 | 16.1 | 20.9 | 0.00 | 0.00 | 0.00 | 74 | 1026.0 |
| 20260905224030 | 16 | 273 | 17.7 | 20.9 | 0.00 | 0.00 | 0.00 | 73 | 1025.9 |
| 20260905223030 | 16 | 279 | 16.1 | 22.5 | 0.00 | 0.00 | 0.00 | 73 | 1026.0 |
| 20260905222030 | 16 | 274 | 17.7 | 20.9 | 0.00 | 0.00 | 0.00 | 73 | 1025.9 |
| 20260905221030 | 16 | 265 | 17.7 | 22.5 | 0.00 | 0.00 | 0.00 | 73 | 1025.8 |
| 20260905220030 | 16 | 283 | 16.1 | 22.5 | 0.00 | 0.00 | 0.00 | 73 | 1025.8 |
| 20260905215030 | 16 | 282 | 16.1 | 20.9 | 0.00 | 0.00 | 0.00 | 72 | 1025.6 |
| 20260905214030 | 16 | 283 | 16.1 | 20.9 | 0.00 | 0.00 | 0.00 | 72 | 1025.8 |
| 20260905213030 | 16 | 293 | 16.1 | 19.3 | 0.00 | 0.00 | 0.00 | 72 | 1025.5 |
| 20260905212030 | 16 | 287 | 16.1 | 19.3 | 0.00 | 0.00 | 0.00 | 72 | 1025.5 |
| 20260905211030 | 16 | 300 | 16.1 | 19.3 | 0.00 | 0.00 | 0.00 | 71 | 1025.5 |
| 20260905210030 | 16 | 299 | 16.1 | 20.9 | 0.00 | 0.00 | 0.00 | 71 | 1025.4 |
| 20260905205029 | 16 | 309 | 16.1 | 22.5 | 0.00 | 0.00 | 0.00 | 72 | 1025.2 |
| 20260905204030 | 16 | 297 | 16.1 | 22.5 | 0.00 | 0.00 | 0.00 | 71 | 1025.4 |
| 20260905203029 | 16 | 313 | 19.3 | 24.1 | 0.00 | 0.00 | 0.00 | 71 | 1025.1 |
| 20260905202030 | 16 | 315 | 17.7 | 22.5 | 0.00 | 0.00 | 0.00 | 71 | 1025.3 |
| 20260905201030 | 16 | 304 | 19.3 | 24.1 | 0.00 | 0.00 | 0.00 | 70 | 1025.2 |
| 20260905200029 | 16 | 306 | 20.9 | 27.4 | 0.00 | 0.00 | 0.00 | 72 | 1025.2 |
| 20260905195030 | 16 | 307 | 20.9 | 25.7 | 0.00 | 0.00 | 0.00 | 71 | 1025.3 |
| 20260905194030 | 16 | 300 | 24.1 | 29.0 | 0.00 | 0.00 | 0.00 | 71 | 1025.2 |
| 20260905193030 | 17 | 294 | 24.1 | 30.6 | 0.00 | 0.00 | 0.00 | 71 | 1025.1 |
| 20260905192030 | 17 | 298 | 25.7 | 32.2 | 0.00 | 0.00 | 0.00 | 72 | 1024.9 |
| 20260905191030 | 17 | 296 | 25.7 | 33.8 | 0.00 | 0.00 | 0.00 | 72 | 1024.8 |
| 20260905190030 | 17 | 290 | 29.0 | 35.4 | 0.00 | 0.00 | 0.00 | 69 | 1024.7 |
| 20260905185030 | 17 | 291 | 29.0 | 41.8 | 0.00 | 0.00 | 0.00 | 69 | 1024.5 |
| 20260905184030 | 17 | 297 | 29.0 | 43.5 | 0.00 | 0.00 | 0.00 | 69 | 1024.3 |
| 20260905183030 | 17 | 282 | 32.2 | 45.1 | 0.00 | 0.00 | 0.00 | 67 | 1024.2 |
| 20260905182030 | 17 | 295 | 30.6 | 40.2 | 0.00 | 0.00 | 0.00 | 72 | 1024.2 |
| 20260905181029 | 17 | 298 | 30.6 | 37.0 | 0.00 | 0.00 | 0.00 | 72 | 1024.1 |
| 20260905180030 | 17 | 298 | 24.1 | 38.6 | 0.00 | 0.00 | 0.00 | 73 | 1023.8 |
| 20260905175030 | 17 | 302 | 25.7 | 32.2 | 0.00 | 0.00 | 0.00 | 74 | 1024.0 |
| 20260905174029 | 17 | 294 | 29.0 | 35.4 | 0.00 | 0.00 | 0.00 | 74 | 1024.0 |
| 20260905173031 | 17 | 289 | 30.6 | 37.0 | 0.00 | 0.00 | 0.00 | 75 | 1024.0 |
| 20260905172029 | 17 | 290 | 30.6 | 41.8 | 0.00 | 0.00 | 0.00 | 74 | 1023.8 |
| 20260905171030 | 17 | 292 | 29.0 | 35.4 | 0.00 | 0.00 | 0.00 | 75 | 1023.9 |
| 20260905170030 | 17 | 290 | 32.2 | 41.8 | 0.00 | 0.00 | 0.00 | 75 | 1023.8 |
| 20260905165029 | 17 | 295 | 30.6 | 41.8 | 0.00 | 0.00 | 0.00 | 73 | 1023.7 |
| 20260905164030 | 17 | 289 | 30.6 | 43.5 | 0.00 | 0.00 | 0.00 | 73 | 1023.6 |
| 20260905163030 | 17 | 283 | 32.2 | 41.8 | 0.00 | 0.00 | 0.00 | 72 | 1023.6 |
| 20260905162030 | 17 | 281 | 35.4 | 45.1 | 0.00 | 0.00 | 0.00 | 68 | 1023.4 |
| 20260905161030 | 17 | 272 | 35.4 | 46.7 | 0.00 | 0.00 | 0.00 | 68 | 1023.2 |
| 20260905160030 | 17 | 282 | 37.0 | 46.7 | 0.00 | 0.00 | 0.00 | 68 | 1023.0 |
| 20260905155029 | 17 | 287 | 37.0 | 49.9 | 0.00 | 0.00 | 0.00 | 67 | 1022.8 |
| 20260905154030 | 17 | 286 | 35.4 | 45.1 | 0.00 | 0.00 | 0.00 | 71 | 1022.9 |
| 20260905153030 | 17 | 292 | 35.4 | 45.1 | 0.00 | 0.00 | 0.00 | 71 | 1022.8 |
| 20260905152030 | 17 | 287 | 41.8 | 49.9 | 0.00 | 0.00 | 0.00 | 69 | 1022.5 |
| 20260905151030 | 17 | 277 | 41.8 | 51.5 | 0.00 | 0.00 | 0.00 | 70 | 1022.5 |
| 20260905150030 | 17 | 284 | 37.0 | 48.3 | 0.00 | 0.00 | 0.00 | 69 | 1022.3 |
| 20260905145030 | 17 | 287 | 32.2 | 41.8 | 0.00 | 0.00 | 0.00 | 72 | 1022.4 |
| 20260905144030 | 17 | 287 | 37.0 | 48.3 | 0.00 | 0.00 | 0.00 | 71 | 1022.2 |
| 20260905143030 | 17 | 286 | 35.4 | 45.1 | 0.00 | 0.00 | 0.00 | 70 | 1022.1 |
| 20260905142029 | 18 | 279 | 37.0 | 46.7 | 0.00 | 0.00 | 0.00 | 70 | 1022.1 |
| 20260905141030 | 18 | 276 | 41.8 | 51.5 | 0.00 | 0.00 | 0.00 | 68 | 1021.9 |
| 20260905140030 | 18 | 278 | 40.2 | 49.9 | 0.00 | 0.00 | 0.00 | 69 | 1021.8 |
| 20260905135029 | 18 | 274 | 41.8 | 56.3 | 0.00 | 0.00 | 0.00 | 69 | 1021.7 |
| 20260905134030 | 18 | 278 | 45.1 | 56.3 | 0.00 | 0.00 | 0.00 | 72 | 1021.6 |
| 20260905133030 | 18 | 266 | 38.6 | 51.5 | 0.00 | 0.00 | 0.00 | 71 | 1021.5 |
| 20260905132030 | 18 | 275 | 43.5 | 53.1 | 0.00 | 0.00 | 0.00 | 73 | 1021.4 |
| 20260905131030 | 18 | 274 | 43.5 | 53.1 | 0.00 | 0.00 | 0.00 | 72 | 1021.3 |
| 20260905130030 | 17 | 277 | 41.8 | 53.1 | 0.00 | 0.00 | 0.00 | 73 | 1021.3 |
| 20260905125030 | 17 | 280 | 43.5 | 51.5 | 0.00 | 0.00 | 0.00 | 72 | 1021.2 |
| 20260905124030 | 18 | 277 | 46.7 | 56.3 | 0.00 | 0.00 | 0.00 | 71 | 1021.1 |
| 20260905123030 | 17 | 262 | 45.1 | 56.3 | 0.00 | 0.00 | 0.00 | 73 | 1021.0 |
| 20260905122030 | 18 | 266 | 41.8 | 48.3 | 0.00 | 0.00 | 0.00 | 73 | 1021.0 |
| 20260905121030 | 17 | 264 | 43.5 | 56.3 | 0.00 | 0.00 | 0.00 | 72 | 1020.8 |
| 20260905120030 | 17 | 253 | 48.3 | 59.5 | 0.00 | 0.00 | 0.00 | 71 | 1020.6 |
| 20260905115030 | 17 | 271 | 45.1 | 56.3 | 0.00 | 0.00 | 0.00 | 70 | 1020.6 |
| 20260905114030 | 17 | 276 | 40.2 | 51.5 | 0.00 | 0.00 | 0.00 | 71 | 1020.6 |
| 20260905113030 | 17 | 288 | 35.4 | 46.7 | 0.00 | 0.00 | 0.00 | 73 | 1020.5 |
| 20260905112030 | 17 | 281 | 45.1 | 57.9 | 0.00 | 0.00 | 0.00 | 73 | 1020.2 |
| 20260905111030 | 17 | 270 | 48.3 | 56.3 | 0.00 | 0.00 | 0.00 | 73 | 1020.1 |
| 20260905110030 | 17 | 261 | 43.5 | 57.9 | 0.00 | 0.00 | 0.00 | 70 | 1019.8 |
| 20260905105030 | 17 | 261 | 45.1 | 53.1 | 0.00 | 0.00 | 0.00 | 74 | 1019.8 |
| 20260905104030 | 17 | 269 | 45.1 | 56.3 | 0.00 | 0.00 | 0.00 | 75 | 1019.6 |
| 20260905103030 | 17 | 255 | 43.5 | 54.7 | 0.00 | 0.00 | 0.00 | 79 | 1019.6 |
| 20260905102030 | 17 | 265 | 43.5 | 56.3 | 0.00 | 0.00 | 0.00 | 79 | 1019.3 |
| 20260905101030 | 17 | 277 | 45.1 | 54.7 | 0.00 | 0.00 | 0.00 | 82 | 1019.4 |
| 20260905100030 | 17 | 259 | 48.3 | 62.8 | 0.00 | 0.00 | 0.00 | 79 | 1019.2 |